SJV634 WARR-WAOO

Flight info

Callsign SJV634
Flight time 0h 50m
Altitude 35000
Route RAMPY T13 IKAPI
Aircraft A320/M-SDE3FGHIRWY/LB1

Departure

Time 2026-05-07 13:30
Airport Juanda International Airport (WARR)

Arrival

Time 2026-05-07 14:20
Airport Syamsudin Noor International Airport (WAOO)
Time Latitude Longitude Altitude Speed Heading
2026-05-07 13:15 -7.37570 112.79347 19 ft 0 kts
2026-05-07 13:17 -7.37572 112.79346 19 ft 1 kts
2026-05-07 13:17 -7.37587 112.79344 19 ft 2 kts
2026-05-07 13:17 -7.37601 112.79342 19 ft 2 kts
2026-05-07 13:18 -7.37611 112.79340 19 ft 2 kts
2026-05-07 13:18 -7.37626 112.79340 19 ft 2 kts 348°
2026-05-07 13:18 -7.37640 112.79345 19 ft 2 kts 332°
2026-05-07 13:18 -7.37652 112.79354 19 ft 2 kts 315°
2026-05-07 13:19 -7.37662 112.79366 19 ft 2 kts 297°
2026-05-07 13:19 -7.37667 112.79379 19 ft 0 kts 282°
2026-05-07 13:19 -7.37668 112.79386 19 ft 1 kts 278°
2026-05-07 13:19 -7.37668 112.79387 19 ft 0 kts 278°
2026-05-07 13:21 -7.37667 112.79379 19 ft 3 kts 278°
2026-05-07 13:21 -7.37660 112.79334 19 ft 9 kts 279°
2026-05-07 13:22 -7.37647 112.79251 19 ft 12 kts 279°
2026-05-07 13:22 -7.37632 112.79160 19 ft 13 kts 279°
2026-05-07 13:22 -7.37639 112.79105 19 ft 8 kts 216°
2026-05-07 13:22 -7.37700 112.79092 19 ft 9 kts 188°
2026-05-07 13:23 -7.37772 112.79080 19 ft 11 kts 189°
2026-05-07 13:23 -7.37837 112.79069 19 ft 7 kts 198°
2026-05-07 13:23 -7.37861 112.79022 19 ft 10 kts 272°
2026-05-07 13:23 -7.37849 112.78932 19 ft 16 kts 279°
2026-05-07 13:24 -7.37829 112.78810 19 ft 17 kts 279°
2026-05-07 13:24 -7.37809 112.78689 19 ft 17 kts 279°
2026-05-07 13:24 -7.37789 112.78565 19 ft 17 kts 279°
2026-05-07 13:24 -7.37769 112.78439 19 ft 18 kts 279°
2026-05-07 13:25 -7.37749 112.78314 19 ft 18 kts 279°
2026-05-07 13:25 -7.37728 112.78185 19 ft 18 kts 279°
2026-05-07 13:25 -7.37707 112.78057 19 ft 18 kts 279°
2026-05-07 13:25 -7.37685 112.77927 19 ft 18 kts 279°
2026-05-07 13:26 -7.37664 112.77798 19 ft 18 kts 279°
2026-05-07 13:26 -7.37643 112.77663 19 ft 18 kts 279°
2026-05-07 13:26 -7.37622 112.77528 19 ft 19 kts 279°
2026-05-07 13:26 -7.37607 112.77432 19 ft 8 kts 271°
2026-05-07 13:27 -7.37647 112.77383 19 ft 10 kts 199°
2026-05-07 13:27 -7.37723 112.77371 19 ft 11 kts 187°
2026-05-07 13:27 -7.37762 112.77366 19 ft 3 kts 177°
2026-05-07 13:27 -7.37774 112.77387 19 ft 2 kts 100°
2026-05-07 13:28 -7.37774 112.77389 19 ft 0 kts 100°
2026-05-07 13:29 -7.37781 112.77428 19 ft 24 kts 100°
2026-05-07 13:29 -7.37859 112.77911 20 ft 109 kts 99°
2026-05-07 13:29 -7.38022 112.78927 89 ft 170 kts 99°
2026-05-07 13:30 -7.38208 112.80095 904 ft 169 kts 99°
2026-05-07 13:30 -7.38394 112.81242 1877 ft 163 kts 99°
2026-05-07 13:30 -7.38552 112.82387 2439 ft 172 kts 89°
2026-05-07 13:30 -7.38095 112.83532 2866 ft 189 kts 43°
2026-05-07 13:31 -7.36883 112.84209 3296 ft 210 kts 20°
2026-05-07 13:31 -7.35428 112.84720 3840 ft 229 kts 19°
2026-05-07 13:31 -7.33855 112.85286 4409 ft 248 kts 20°
2026-05-07 13:31 -7.32193 112.85941 5006 ft 265 kts 22°
2026-05-07 13:32 -7.30462 112.86669 5860 ft 271 kts 23°
2026-05-07 13:32 -7.28712 112.87431 6793 ft 274 kts 23°
2026-05-07 13:32 -7.26965 112.88206 7672 ft 278 kts 24°
2026-05-07 13:32 -7.25211 112.88995 8521 ft 281 kts 24°
2026-05-07 13:33 -7.23418 112.89805 9350 ft 284 kts 24°
2026-05-07 13:33 -7.21586 112.90636 10151 ft 288 kts 24°
2026-05-07 13:33 -7.19734 112.91477 10724 ft 299 kts 24°
2026-05-07 13:33 -7.17791 112.92360 11070 ft 317 kts 24°
2026-05-07 13:34 -7.15706 112.93308 11391 ft 335 kts 24°
2026-05-07 13:34 -7.11306 112.95312 12483 ft 353 kts 24°
2026-05-07 13:34 -7.09076 112.96327 13197 ft 355 kts 24°
2026-05-07 13:35 -7.06780 112.97372 13876 ft 359 kts 24°
2026-05-07 13:35 -7.04471 112.98424 14534 ft 363 kts 24°
2026-05-07 13:35 -7.02159 112.99476 15173 ft 366 kts 24°
2026-05-07 13:35 -6.99795 113.00552 15804 ft 369 kts 24°
2026-05-07 13:36 -6.97384 113.01650 16426 ft 373 kts 24°
2026-05-07 13:36 -6.94960 113.02754 17029 ft 376 kts 24°
2026-05-07 13:36 -6.92536 113.03857 17612 ft 379 kts 24°
2026-05-07 13:36 -6.90051 113.04989 18193 ft 383 kts 24°
2026-05-07 13:37 -6.87567 113.06115 18755 ft 386 kts 24°
2026-05-07 13:37 -6.85084 113.07239 19301 ft 389 kts 24°
2026-05-07 13:37 -6.82561 113.08382 19839 ft 392 kts 24°
2026-05-07 13:37 -6.80013 113.09539 20366 ft 395 kts 24°
2026-05-07 13:38 -6.77479 113.10689 20870 ft 398 kts 24°
2026-05-07 13:38 -6.74879 113.11871 21369 ft 401 kts 24°
2026-05-07 13:38 -6.72307 113.13042 21847 ft 404 kts 24°
2026-05-07 13:38 -6.69912 113.14130 22277 ft 407 kts 24°
2026-05-07 13:39 -6.67279 113.15327 22738 ft 410 kts 24°
2026-05-07 13:39 -6.64814 113.16449 23151 ft 412 kts 24°
2026-05-07 13:39 -6.62138 113.17665 23588 ft 415 kts 24°
2026-05-07 13:39 -6.59458 113.18884 24013 ft 418 kts 24°
2026-05-07 13:40 -6.56769 113.20106 24426 ft 421 kts 24°
2026-05-07 13:40 -6.54071 113.21333 24829 ft 423 kts 24°
2026-05-07 13:40 -6.51338 113.22576 25225 ft 426 kts 24°
2026-05-07 13:40 -6.48548 113.23845 25619 ft 428 kts 24°
2026-05-07 13:41 -6.45840 113.25076 25991 ft 431 kts 24°
2026-05-07 13:41 -6.43008 113.26365 26372 ft 433 kts 24°
2026-05-07 13:41 -6.40165 113.27658 26745 ft 436 kts 24°
2026-05-07 13:41 -6.37350 113.28939 27104 ft 438 kts 24°
2026-05-07 13:42 -6.34789 113.30106 27427 ft 440 kts 24°
2026-05-07 13:42 -6.31939 113.31404 27773 ft 443 kts 24°
2026-05-07 13:42 -6.29050 113.32719 28116 ft 445 kts 24°
2026-05-07 13:42 -6.26133 113.34045 28455 ft 448 kts 24°
2026-05-07 13:43 -6.23260 113.35375 28781 ft 450 kts 25°
2026-05-07 13:43 -6.20369 113.36775 29101 ft 452 kts 26°
2026-05-07 13:43 -6.17483 113.38193 29463 ft 453 kts 26°
2026-05-07 13:43 -6.14607 113.39606 29904 ft 451 kts 26°
2026-05-07 13:44 -6.11699 113.41035 30347 ft 450 kts 26°
2026-05-07 13:44 -6.08837 113.42437 30758 ft 449 kts 26°
2026-05-07 13:44 -6.05980 113.43835 31152 ft 448 kts 26°
2026-05-07 13:44 -6.05237 113.44198 31253 ft 448 kts 26°
2026-05-07 13:45 -6.03854 113.44875 31438 ft 448 kts 26°
2026-05-07 13:46 -6.00992 113.46275 31813 ft 447 kts 26°
2026-05-07 13:46 -5.99160 113.47169 32047 ft 447 kts 26°
2026-05-07 13:46 -5.96276 113.48579 32425 ft 446 kts 26°
2026-05-07 13:47 -5.93400 113.49985 32806 ft 445 kts 26°
2026-05-07 13:47 -5.90525 113.51389 33165 ft 445 kts 26°
2026-05-07 13:47 -5.87835 113.52699 33472 ft 445 kts 25°
2026-05-07 13:47 -5.85015 113.54067 33744 ft 446 kts 25°
2026-05-07 13:48 -5.82769 113.55157 33944 ft 447 kts 26°
2026-05-07 13:48 -5.79156 113.56915 34250 ft 448 kts 26°
2026-05-07 13:49 -5.77834 113.57558 34363 ft 449 kts 25°
2026-05-07 13:49 -5.74976 113.58951 34599 ft 450 kts 25°
2026-05-07 13:49 -5.72126 113.60339 34828 ft 451 kts 26°
2026-05-07 13:49 -5.69261 113.61735 34976 ft 452 kts 25°
2026-05-07 13:50 -5.66386 113.63136 34984 ft 452 kts 25°
2026-05-07 13:50 -5.60625 113.65949 34988 ft 453 kts 25°
2026-05-07 13:51 -5.54932 113.68752 34991 ft 453 kts 26°
2026-05-07 13:51 -5.49165 113.71576 34991 ft 453 kts 26°
2026-05-07 13:52 -5.43484 113.74352 34991 ft 453 kts 25°
2026-05-07 13:52 -5.37790 113.77129 34991 ft 453 kts 25°
2026-05-07 13:53 -5.32052 113.79924 34992 ft 453 kts 25°
2026-05-07 13:53 -5.26344 113.82704 34991 ft 453 kts 25°
2026-05-07 13:54 -5.20604 113.85499 34544 ft 456 kts 25°
2026-05-07 13:54 -5.17680 113.86924 33817 ft 457 kts 25°
2026-05-07 13:54 -5.14780 113.88335 33119 ft 457 kts 25°
2026-05-07 13:54 -5.13720 113.88850 32845 ft 458 kts 25°
2026-05-07 13:55 -5.13692 113.88863 32838 ft 458 kts 25°
2026-05-07 13:55 -5.12411 113.89486 32497 ft 458 kts 25°
2026-05-07 13:55 -5.09519 113.90894 31739 ft 460 kts 25°
2026-05-07 13:56 -5.06614 113.92310 31008 ft 460 kts 25°
2026-05-07 13:56 -5.03714 113.93722 30233 ft 461 kts 25°
2026-05-07 13:56 -5.00770 113.95155 29479 ft 461 kts 25°
2026-05-07 13:56 -4.97849 113.96570 28699 ft 461 kts 24°
2026-05-07 13:57 -4.94885 113.97858 28163 ft 455 kts 21°
2026-05-07 13:57 -4.91839 113.98994 27697 ft 448 kts 19°
2026-05-07 13:57 -4.89868 113.99688 27393 ft 445 kts 19°
2026-05-07 13:58 -4.87472 114.00523 26997 ft 440 kts 18°
2026-05-07 13:58 -4.85930 114.01057 26742 ft 438 kts 19°
2026-05-07 13:58 -4.83007 114.02069 26269 ft 432 kts 19°
2026-05-07 13:58 -4.80164 114.03060 25792 ft 428 kts 19°
2026-05-07 13:59 -4.78249 114.03729 25462 ft 425 kts 19°
2026-05-07 13:59 -4.75417 114.04721 24969 ft 420 kts 19°
2026-05-07 13:59 -4.72057 114.05899 24380 ft 416 kts 19°
2026-05-07 13:59 -4.69276 114.06874 23890 ft 412 kts 19°
2026-05-07 14:00 -4.66540 114.07834 23403 ft 408 kts 19°
2026-05-07 14:00 -4.63859 114.08775 22925 ft 405 kts 19°
2026-05-07 14:00 -4.61169 114.09719 22442 ft 402 kts 19°
2026-05-07 14:00 -4.58495 114.10657 21961 ft 399 kts 19°
2026-05-07 14:01 -4.55862 114.11581 21486 ft 396 kts 19°
2026-05-07 14:01 -4.53245 114.12498 21014 ft 394 kts 19°
2026-05-07 14:01 -4.50623 114.13419 20540 ft 392 kts 19°
2026-05-07 14:01 -4.48025 114.14329 20069 ft 390 kts 19°
2026-05-07 14:02 -4.45405 114.15248 19593 ft 388 kts 19°
2026-05-07 14:02 -4.42840 114.16148 19128 ft 386 kts 19°
2026-05-07 14:02 -4.40313 114.17034 18666 ft 384 kts 19°
2026-05-07 14:02 -4.37744 114.17934 18196 ft 382 kts 19°
2026-05-07 14:03 -4.35196 114.18828 17728 ft 381 kts 19°
2026-05-07 14:03 -4.32690 114.19707 17267 ft 379 kts 19°
2026-05-07 14:03 -4.30199 114.20580 16806 ft 377 kts 19°
2026-05-07 14:03 -4.27684 114.21461 16341 ft 375 kts 19°
2026-05-07 14:04 -4.25213 114.22327 15881 ft 373 kts 19°
2026-05-07 14:04 -4.22740 114.23194 15421 ft 371 kts 19°
2026-05-07 14:04 -4.20301 114.24049 14966 ft 369 kts 19°
2026-05-07 14:04 -4.17805 114.24924 14500 ft 367 kts 19°
2026-05-07 14:05 -4.15386 114.25771 14046 ft 365 kts 19°
2026-05-07 14:05 -4.12936 114.26630 13587 ft 363 kts 19°
2026-05-07 14:05 -4.10525 114.27474 13133 ft 362 kts 19°
2026-05-07 14:05 -4.08132 114.28313 12681 ft 360 kts 19°
2026-05-07 14:06 -4.05727 114.29156 12225 ft 358 kts 19°
2026-05-07 14:06 -4.03364 114.29984 11775 ft 356 kts 19°
2026-05-07 14:06 -4.01011 114.30808 11327 ft 354 kts 19°
2026-05-07 14:06 -3.98658 114.31632 10876 ft 353 kts 19°
2026-05-07 14:07 -3.96303 114.32457 10426 ft 351 kts 19°
2026-05-07 14:07 -3.94017 114.33257 10246 ft 340 kts 19°
2026-05-07 14:07 -3.91828 114.34025 10164 ft 327 kts 19°
2026-05-07 14:07 -3.89700 114.34770 10086 ft 314 kts 19°
2026-05-07 14:08 -3.87647 114.35487 10019 ft 302 kts 19°
2026-05-07 14:08 -3.85650 114.36182 9758 ft 298 kts 19°
2026-05-07 14:08 -3.83684 114.36867 9496 ft 293 kts 19°
2026-05-07 14:08 -3.81760 114.37540 9223 ft 290 kts 19°
2026-05-07 14:09 -3.79801 114.38225 8788 ft 293 kts 19°
2026-05-07 14:09 -3.77883 114.38896 8524 ft 289 kts 19°
2026-05-07 14:09 -3.75985 114.39561 8245 ft 286 kts 19°
2026-05-07 14:09 -3.74091 114.40224 7819 ft 289 kts 19°
2026-05-07 14:10 -3.72170 114.40897 7552 ft 285 kts 19°
2026-05-07 14:10 -3.70267 114.41563 7271 ft 282 kts 19°
2026-05-07 14:10 -3.68404 114.42215 6858 ft 284 kts 19°
2026-05-07 14:10 -3.66532 114.42870 6585 ft 281 kts 19°
2026-05-07 14:11 -3.64666 114.43523 6317 ft 278 kts 19°
2026-05-07 14:11 -3.62808 114.44174 5920 ft 280 kts 19°
2026-05-07 14:11 -3.60947 114.44826 5607 ft 279 kts 19°
2026-05-07 14:11 -3.59112 114.45469 5367 ft 275 kts 19°
2026-05-07 14:12 -3.57294 114.46105 5018 ft 275 kts 19°
2026-05-07 14:12 -3.55474 114.46743 4662 ft 276 kts 19°
2026-05-07 14:12 -3.53618 114.47394 4408 ft 272 kts 19°
2026-05-07 14:12 -3.51820 114.48024 4067 ft 269 kts 19°
2026-05-07 14:13 -3.50086 114.48632 3748 ft 254 kts 19°
2026-05-07 14:13 -3.48425 114.49215 3456 ft 241 kts 19°
2026-05-07 14:13 -3.46855 114.49765 3190 ft 235 kts 19°
2026-05-07 14:13 -3.45295 114.50311 3012 ft 231 kts 19°
2026-05-07 14:14 -3.43785 114.50839 3000 ft 220 kts 19°
2026-05-07 14:14 -3.42348 114.51343 2992 ft 209 kts 19°
2026-05-07 14:14 -3.41033 114.51924 2975 ft 198 kts 40°
2026-05-07 14:14 -3.40284 114.53050 2988 ft 195 kts 78°
2026-05-07 14:15 -3.40259 114.54410 3010 ft 195 kts 96°
2026-05-07 14:15 -3.40443 114.55781 3002 ft 195 kts 99°
2026-05-07 14:15 -3.40680 114.57150 2999 ft 195 kts 100°
2026-05-07 14:15 -3.40931 114.58505 2998 ft 195 kts 101°
2026-05-07 14:16 -3.41186 114.59872 2986 ft 195 kts 101°
2026-05-07 14:16 -3.41436 114.61213 2903 ft 187 kts 101°
2026-05-07 14:16 -3.41676 114.62514 2634 ft 186 kts 101°
2026-05-07 14:16 -3.41915 114.63812 2366 ft 183 kts 101°
2026-05-07 14:17 -3.42145 114.65060 2112 ft 174 kts 101°
2026-05-07 14:17 -3.42360 114.66236 1888 ft 164 kts 100°
2026-05-07 14:17 -3.42557 114.67311 1668 ft 151 kts 100°
2026-05-07 14:17 -3.42741 114.68318 1445 ft 141 kts 100°
2026-05-07 14:18 -3.42920 114.69287 1253 ft 139 kts 100°
2026-05-07 14:18 -3.43099 114.70252 1064 ft 138 kts 100°
2026-05-07 14:18 -3.43277 114.71210 885 ft 138 kts 100°
2026-05-07 14:18 -3.43455 114.72178 690 ft 137 kts 100°
2026-05-07 14:19 -3.43630 114.73120 512 ft 137 kts 99°
2026-05-07 14:19 -3.43806 114.74074 325 ft 137 kts 102°
2026-05-07 14:19 -3.44002 114.74988 135 ft 136 kts 101°
2026-05-07 14:19 -3.44160 114.75854 74 ft 107 kts 97°
2026-05-07 14:20 -3.44241 114.76300 74 ft 39 kts 100°
2026-05-07 14:20 -3.44288 114.76567 73 ft 36 kts 100°
2026-05-07 14:20 -3.44329 114.76788 73 ft 25 kts 100°
2026-05-07 14:20 -3.44361 114.76956 73 ft 24 kts 101°
2026-05-07 14:21 -3.44357 114.77073 73 ft 12 kts 67°
2026-05-07 14:21 -3.44382 114.77078 73 ft 11 kts 261°
2026-05-07 14:21 -3.44366 114.76981 73 ft 18 kts 281°
2026-05-07 14:21 -3.44339 114.76834 73 ft 24 kts 280°
2026-05-07 14:22 -3.44306 114.76656 73 ft 25 kts 281°
2026-05-07 14:22 -3.44273 114.76485 73 ft 25 kts 281°
2026-05-07 14:22 -3.44242 114.76314 73 ft 24 kts 280°
2026-05-07 14:22 -3.44212 114.76152 73 ft 23 kts 280°
2026-05-07 14:23 -3.44184 114.76002 73 ft 10 kts 281°
2026-05-07 14:23 -3.44169 114.75953 73 ft 6 kts 311°
2026-05-07 14:23 -3.44124 114.75944 73 ft 7 kts 10°
2026-05-07 14:23 -3.44068 114.75955 73 ft 8 kts 11°
2026-05-07 14:24 -3.44004 114.75967 73 ft 10 kts 10°
2026-05-07 14:24 -3.43937 114.75980 73 ft 8 kts 19°
2026-05-07 14:24 -3.43904 114.76003 73 ft 5 kts 18°
2026-05-07 14:24 -3.43872 114.76009 73 ft 4 kts
2026-05-07 14:25 -3.43843 114.76014 72 ft 3 kts 10°
2026-05-07 14:25 -3.43840 114.76015 72 ft 0 kts 10°